STARLINK-37447, 68810

Orbit data source: Space-Track

STARLINK-37447, 68810 is a payload satellite owned by SpaceX/Seattle (US) in SSO that was launched on Thu, 23 Apr 2026 UTC via an FALCON 9 launch vehicle from the Air Force Western Test Range (AFWTR). Payload-class satellites include a variety of spacecraft equipped with specific instruments for various scientific and technological missions. These include communications satellites like Starlink; space stations such as the ISS; scientific satellites like the Hubble; Earth observation satellites from companies like Planet Labs, Umbra, and HawkEye 360; GPS; miniature CubeSats for education and research; and military/defense satellites.

Loading next visibility...
Identifier
68810, 2026-089J
Orbit
SSO
Country
Flag of USUS
Related business
Manufacturer
SpaceX/Seattle
Mission
Operational spacecraft
Bus & Motor
STARLINK V2MO, Unknown motor
Mass
575 kg wet, ~530 kg dry
Launch date (UTC)
2026-04-23 (1 week ago)
Launch vehicle
FALCON 9
Launch site
Air Force Western Test Range (AFWTR)
Object type
Payload
Rocket body
Debris
Shape & HBR
Unknown
Radar Cross Section
RCS unknown

Expand to show TLE details & history
Last TLE update: 7 hours ago

TLE from 7 hours ago
0 STARLINK-37447
1 68810U 26089J   26121.25002315 -.02080127  00000-0 -94341-2 0  9993
2 68810  97.2851 326.6954 0001502  80.3273 330.1006 15.86870508  2455
Epoch: 2026-05-01T06:00Z
TLE epoch observation values (Epoch: 2026-05-01T06:00:02.000Z)
Latitude
49.97007°
Longitude
8.79797°
Altitude
318.242 km
Speed
7.723 km/s
True Right ascension
21h 11m 57s
True Declination
49° 47' 22"
Sunlit
Object was in daylight at epoch
Visualization orbit readout
Latitude
Unknown
Longitude
Unknown
Altitude
Unknown
Speed
Unknown
Apparent Right ascension
Unknown
Apparent Declination
Unknown
Sunlit
N/A
Visualization observer readout
Local Sidereal Time
20:31:03
Azimuth
Unknown
Elevation
Unknown
Doppler factor
Unknown
Orbital elements
Apogee altitude
308.939 km
Perigee altitude
306.931 km
Semi-major axis
6,686.072 km
Eccentricity
0.00015
Inclination
97.2851°
RAAN
326.6954°
Arg. of periapsis
80.3273°
True anomaly
330.09202°
Mean anomaly
330.1006°
Eccentric anomaly
330.09631°
Mean motion
3.96996 °/min
Orbital period
90.68 mins
BSTAR
-0.0094341
Loading maneuver chart data...
Computing Atmospheric mass density...
Loading historical data...
Loading historical data...
Loading historical data...
Loading historical data...
Loading historical data...
Loading historical data...
Loading historical data...

Documentation

Showing up to 5 results
|